Algona, IA

6:45 PM CST on December 04, 2016 (GMT -0600)
Algona Municipal

Weather History for KAXA - May, 2014

Change the Weather History Date:

Thursday, May 15, 2014

  Actual Average Record
Temperature  
Mean Temperature 42 °F -  
Max Temperature 48 °F 67 °F 93 °F (2001)
Min Temperature 35 °F 46 °F 32 °F (1997)
Degree Days  
Heating Degree Days 24    
Moisture  
Dew Point 30 °F    
Average Humidity 60    
Maximum Humidity 87    
Minimum Humidity 43    
Precipitation  
Precipitation 0.00 in - - ()
Sea Level Pressure  
Sea Level Pressure 30.13 in    
Wind  
Wind Speed 15 mph (NNW)    
Max Wind Speed 23 mph    
Max Gust Speed 33 mph    
Visibility 10 miles    
Events      
Averages and records for this station are not official NWS values.
T = Trace of Precipitation, MM = Missing Value Source: NWS Daily Summary

Daily Weather History Graph

Daily Weather History Graph

Search for Another Location

Airport or City:

Trip Planner

Search our weather history database for the weather conditions in past years. The results will help you decide how hot, cold, wet, or windy it might be!

Date:

Astronomy

May. 15, 2014 Rise Set
Actual Time 5:53 AM CDT 8:33 PM CDT
Civil Twilight 5:20 AM CDT 9:06 PM CDT
Nautical Twilight 4:39 AM CDT 9:47 PM CDT
Astronomical Twilight 3:53 AM CDT 10:35 PM CDT
Moon 9:42 PM CDT (5/15) 6:41 AM CDT (5/15)
Length of Visible Light 15h 45m
Length of Day
14h 40m
Full, 99% of the Moon is Illuminated
May 15
Full
May 21
Last Quarter
May 28
New
Jun 5
First Quarter
Jun 12
Full

Hourly Weather History & Observations

Time (CDT) Temp. Windchill Dew Point Humidity Pressure Visibility Wind Dir Wind Speed Gust Speed Precip Events Conditions
12:15 AM 44.6 °F 36.9 °F 30.2 °F 57% 30.19 in 10.0 mi North 18.4 mph 25.3 mph N/A   Overcast
12:35 AM 44.6 °F 37.8 °F 30.2 °F 57% 30.18 in 10.0 mi North 15.0 mph 24.2 mph N/A   Overcast
12:55 AM 42.8 °F 36.2 °F 30.2 °F 61% 30.18 in 10.0 mi North 12.7 mph 20.7 mph N/A   Overcast
1:15 AM 42.8 °F 36.2 °F 30.2 °F 61% 30.17 in 10.0 mi North 12.7 mph 21.9 mph N/A   Overcast
1:35 AM 42.8 °F 36.6 °F 30.2 °F 61% 30.17 in 10.0 mi North 11.5 mph 19.6 mph N/A   Mostly Cloudy
1:55 AM 41.0 °F 33.1 °F 30.2 °F 65% 30.16 in 10.0 mi North 15.0 mph - N/A   Mostly Cloudy
2:15 AM 41.0 °F 34.7 °F 30.2 °F 65% 30.15 in 10.0 mi NNW 10.4 mph - N/A   Mostly Cloudy
2:35 AM 41.0 °F 33.9 °F 30.2 °F 65% 30.14 in 10.0 mi NNW 12.7 mph - N/A   Mostly Cloudy
2:55 AM 39.2 °F 31.6 °F 30.2 °F 70% 30.14 in 10.0 mi NNW 12.7 mph - N/A   Scattered Clouds
3:15 AM 39.2 °F 31.6 °F 30.2 °F 70% 30.13 in 10.0 mi NNW 12.7 mph - N/A   Clear
3:35 AM 37.4 °F 30.3 °F 30.2 °F 75% 30.13 in 10.0 mi NNW 10.4 mph 18.4 mph N/A   Clear
3:55 AM 37.4 °F 30.3 °F 30.2 °F 75% 30.13 in 10.0 mi NNW 10.4 mph - N/A   Clear
4:15 AM 37.4 °F 28.9 °F 30.2 °F 75% 30.12 in 10.0 mi NNW 13.8 mph 19.6 mph N/A   Clear
4:35 AM 37.4 °F 28.9 °F 30.2 °F 75% 30.12 in 10.0 mi NNW 13.8 mph - N/A   Clear
4:55 AM 37.4 °F 29.3 °F 30.2 °F 75% 30.11 in 10.0 mi NNW 12.7 mph - N/A   Clear
5:15 AM 35.6 °F 26.2 °F 30.2 °F 81% 30.11 in 10.0 mi NNW 15.0 mph - N/A   Clear
5:35 AM 35.6 °F 26.2 °F 30.2 °F 81% 30.10 in 10.0 mi NNW 15.0 mph - N/A   Partly Cloudy
5:55 AM 35.6 °F 27.1 °F 30.2 °F 81% 30.10 in 10.0 mi NNW 12.7 mph - N/A   Clear
6:15 AM 35.6 °F 27.1 °F 32.0 °F 87% 30.10 in 10.0 mi NNW 12.7 mph 19.6 mph N/A   Scattered Clouds
6:55 AM 37.4 °F 28.5 °F 32.0 °F 81% 30.11 in 10.0 mi North 15.0 mph - N/A   Partly Cloudy
7:15 AM 37.4 °F 27.8 °F 32.0 °F 81% 30.11 in 10.0 mi North 17.3 mph - N/A   Scattered Clouds
7:35 AM 39.2 °F 29.8 °F 32.0 °F 75% 30.11 in 10.0 mi North 18.4 mph - N/A   Mostly Cloudy
7:55 AM 39.2 °F 30.8 °F 32.0 °F 75% 30.11 in 10.0 mi North 15.0 mph 26.5 mph N/A   Scattered Clouds
8:15 AM 41.0 °F 31.6 °F 32.0 °F 70% 30.11 in 10.0 mi North 20.7 mph - N/A   Mostly Cloudy
8:35 AM 41.0 °F 31.6 °F 32.0 °F 70% 30.12 in 10.0 mi North 20.7 mph 26.5 mph N/A   Overcast
8:55 AM 41.0 °F 31.9 °F 32.0 °F 70% 30.12 in 10.0 mi North 19.6 mph 27.6 mph N/A   Overcast
9:15 AM 42.8 °F 34.5 °F 32.0 °F 66% 30.12 in 10.0 mi North 18.4 mph 25.3 mph N/A   Overcast
9:35 AM 42.8 °F 35.4 °F 32.0 °F 66% 30.12 in 10.0 mi North 15.0 mph 27.6 mph N/A   Mostly Cloudy
9:55 AM 44.6 °F 37.2 °F 32.0 °F 61% 30.12 in 10.0 mi North 17.3 mph 23.0 mph N/A   Mostly Cloudy
10:15 AM 44.6 °F 37.4 °F 33.8 °F 66% 30.12 in 10.0 mi North 16.1 mph 24.2 mph N/A   Mostly Cloudy
10:35 AM 44.6 °F 36.9 °F 32.0 °F 61% 30.12 in 10.0 mi North 18.4 mph 26.5 mph N/A   Mostly Cloudy
10:55 AM 46.4 °F 39.0 °F 32.0 °F 57% 30.12 in 10.0 mi North 19.6 mph 27.6 mph N/A   Mostly Cloudy
11:15 AM 46.4 °F 38.5 °F 32.0 °F 57% 30.12 in 10.0 mi North 21.9 mph 31.1 mph N/A   Mostly Cloudy
11:35 AM 48.2 °F - 32.0 °F 54% 30.12 in 10.0 mi North 20.7 mph 33.4 mph N/A   Mostly Cloudy
11:55 AM 48.2 °F - 32.0 °F 54% 30.12 in 10.0 mi North 23.0 mph 33.4 mph N/A   Mostly Cloudy
12:35 PM 48.2 °F - 32.0 °F 54% 30.12 in 10.0 mi North 18.4 mph 28.8 mph N/A   Overcast
12:55 PM 46.4 °F 39.2 °F 32.0 °F 57% 30.12 in 10.0 mi North 18.4 mph 27.6 mph N/A   Overcast
1:15 PM 48.2 °F - 30.2 °F 50% 30.12 in 10.0 mi North 19.6 mph 28.8 mph N/A   Overcast
1:55 PM 48.2 °F - 32.0 °F 54% 30.12 in 10.0 mi North 16.1 mph 23.0 mph N/A   Overcast
2:15 PM 48.2 °F - 30.2 °F 50% 30.12 in 10.0 mi North 15.0 mph 27.6 mph N/A   Mostly Cloudy
2:35 PM 48.2 °F - 30.2 °F 50% 30.12 in 10.0 mi North 16.1 mph 26.5 mph N/A   Overcast
2:55 PM 48.2 °F - 30.2 °F 50% 30.12 in 10.0 mi North 17.3 mph 26.5 mph N/A   Overcast
3:15 PM 48.2 °F - 28.4 °F 46% 30.12 in 10.0 mi North 15.0 mph 24.2 mph N/A   Overcast
3:35 PM 46.4 °F 39.2 °F 28.4 °F 50% 30.11 in 10.0 mi NNW 18.4 mph 26.5 mph N/A   Overcast
3:55 PM 46.4 °F 38.7 °F 28.4 °F 50% 30.12 in 10.0 mi North 20.7 mph - N/A   Overcast
4:15 PM 48.2 °F - 28.4 °F 46% 30.11 in 10.0 mi NNW 16.1 mph 23.0 mph N/A   Overcast
4:35 PM 48.2 °F - 28.4 °F 46% 30.11 in 10.0 mi North 16.1 mph 24.2 mph N/A   Overcast
4:55 PM 48.2 °F - 28.4 °F 46% 30.11 in 10.0 mi North 12.7 mph 19.6 mph N/A   Overcast
5:15 PM 48.2 °F - 26.6 °F 43% 30.10 in 10.0 mi North 17.3 mph 23.0 mph N/A   Overcast
5:35 PM 48.2 °F - 26.6 °F 43% 30.11 in 10.0 mi North 16.1 mph 24.2 mph N/A   Overcast
5:55 PM 48.2 °F - 26.6 °F 43% 30.11 in 10.0 mi North 18.4 mph 24.2 mph N/A   Overcast
6:15 PM 46.4 °F 40.1 °F 26.6 °F 46% 30.11 in 10.0 mi North 15.0 mph - N/A   Overcast
6:35 PM 46.4 °F 39.8 °F 26.6 °F 46% 30.11 in 10.0 mi NNW 16.1 mph 26.5 mph N/A   Overcast
6:55 PM 46.4 °F 39.5 °F 26.6 °F 46% 30.12 in 10.0 mi NNW 17.3 mph 25.3 mph N/A   Overcast
7:15 PM 46.4 °F 39.5 °F 26.6 °F 46% 30.12 in 10.0 mi NNW 17.3 mph - N/A   Overcast
7:35 PM 46.4 °F 39.5 °F 28.4 °F 50% 30.12 in 10.0 mi NNW 17.3 mph - N/A   Overcast
7:55 PM 46.4 °F 40.7 °F 28.4 °F 50% 30.13 in 10.0 mi North 12.7 mph 20.7 mph N/A   Overcast
8:15 PM 46.4 °F 41.5 °F 28.4 °F 50% 30.13 in 10.0 mi North 10.4 mph - N/A   Overcast
8:35 PM 44.6 °F 39.7 °F 28.4 °F 53% 30.13 in 10.0 mi NNW 9.2 mph 16.1 mph N/A   Overcast
8:55 PM 44.6 °F 39.7 °F 28.4 °F 53% 30.13 in 10.0 mi North 9.2 mph - N/A   Overcast
9:15 PM 44.6 °F 40.2 °F 30.2 °F 57% 30.13 in 10.0 mi North 8.1 mph - N/A   Overcast
9:35 PM 44.6 °F 39.7 °F 28.4 °F 53% 30.14 in 10.0 mi NNW 9.2 mph - N/A   Overcast
9:55 PM 44.6 °F 40.7 °F 30.2 °F 57% 30.14 in 10.0 mi North 6.9 mph - N/A   Overcast
10:15 PM 44.6 °F 39.7 °F 30.2 °F 57% 30.14 in 10.0 mi NNW 9.2 mph - N/A   Overcast
10:35 PM 44.6 °F 39.7 °F 30.2 °F 57% 30.14 in 10.0 mi NNW 9.2 mph - N/A   Overcast
10:55 PM 42.8 °F 38.0 °F 30.2 °F 61% 30.14 in 10.0 mi NNW 8.1 mph - N/A   Overcast
11:15 PM 42.8 °F 38.6 °F 30.2 °F 61% 30.14 in 10.0 mi NNW 6.9 mph - N/A   Overcast
11:55 PM 42.8 °F 38.0 °F 32.0 °F 66% 30.13 in 10.0 mi NNW 8.1 mph - N/A   Overcast